Lapse_Rate
6.8 6.5 6.4 7.0 7.1 7.3 7.3 7.5 7.9 8.1 8.2 7.0 6.7 7.2 7.3 7.2 6.8 6.5 6.3 6.2 6.0 6.4 6.6 6.8 6.8 6.9 7.0 7.2 7.3 7.5 7.5 7.5 7.4 7.2 7.1 7.1 7.0 6.9 6.9 6.5 6.5 5.8 5.4 5.4
5.7 6.1 6.6 6.8 6.9 7.0 6.8 7.1 7.5 7.7 7.7 6.6 6.7 6.9 7.2 7.2 6.8 6.5 6.3 6.2 6.1 5.9 6.6 6.9 6.9 7.0 7.2 7.2 7.3 7.5 7.6 7.6 7.4 7.2 7.1 6.9 6.9 6.8 6.6 6.5 6.0 5.9 6.2 5.9
6.3 6.9 6.8 6.6 6.4 6.7 7.0 7.1 7.5 7.6 7.4 6.5 6.6 6.7 7.5 7.3 6.5 6.2 6.7 6.3 6.1 6.5 6.8 6.9 7.1 7.0 7.1 7.2 7.5 7.6 7.7 7.6 7.5 7.2 6.9 6.7 6.5 6.3 6.2 5.9 6.1 6.6 6.3 6.5
6.1 6.8 6.4 6.6 6.4 6.7 7.3 7.6 6.9 6.9 7.0 7.4 7.3 7.8 8.1 6.9 6.5 6.2 6.1 6.1 6.2 6.9 6.9 6.9 7.0 7.0 7.2 7.3 7.5 7.7 7.7 7.6 7.4 7.0 6.6 6.4 6.2 6.2 5.9 5.9 6.2 6.2 6.2 6.3
6.1 6.4 6.0 6.4 6.8 7.0 7.0 7.0 6.7 6.7 6.8 7.1 7.5 7.4 8.0 7.9 6.6 6.5 6.2 6.0 6.9 7.0 7.0 7.1 7.1 7.2 7.3 7.4 7.4 7.5 7.4 7.4 7.1 6.8 6.5 6.3 6.2 6.1 6.0 5.9 5.8 5.8 6.0 6.1
6.4 6.2 6.1 6.3 6.6 6.6 6.8 6.6 6.6 6.7 6.9 7.1 7.2 7.6 8.4 8.8 7.7 6.9 6.4 6.1 7.1 7.1 7.1 7.1 7.1 7.1 7.2 7.3 7.3 7.4 7.3 7.1 7.0 6.7 6.6 6.5 6.5 6.4 6.2 6.1 6.0 5.9 5.9 6.1
5.8 6.2 6.0 6.1 6.3 6.1 6.3 6.7 7.4 7.5 7.5 7.3 8.0 7.9 7.8 7.7 7.4 6.9 6.5 6.3 7.1 7.3 7.3 7.3 7.3 7.3 7.3 7.2 7.3 7.1 7.0 6.8 6.7 6.7 6.7 6.7 6.6 6.6 6.6 6.6 6.5 6.6 6.6 6.7
6.8 7.0 6.5 5.8 6.4 6.8 6.5 7.1 8.0 8.3 8.5 8.7 8.6 6.9 7.5 7.8 7.1 7.0 6.6 6.6 7.3 7.4 7.3 7.2 7.3 7.2 6.9 6.9 6.8 6.7 6.6 6.7 6.9 6.8 6.7 6.7 6.7 6.7 6.5 6.6 6.5 6.6 6.7 6.6
7.4 7.3 7.7 6.3 5.9 6.8 6.7 6.4 7.3 7.7 7.7 7.0 7.8 7.3 6.8 7.2 6.3 6.7 6.5 7.2 7.4 7.5 7.4 7.3 7.3 6.9 6.7 6.7 6.5 6.4 6.4 6.4 6.6 6.7 6.8 6.9 6.8 6.7 6.7 6.7 6.7 6.7 6.8 6.6
7.4 7.8 6.8 6.6 6.0 6.2 6.9 6.9 6.7 7.0 6.8 7.0 7.6 7.8 8.0 6.5 6.3 6.7 6.8 7.3 7.4 7.5 7.5 7.3 7.1 6.9 6.7 6.6 6.5 6.5 6.4 6.5 6.6 6.7 6.7 6.8 6.8 6.9 7.0 6.7 6.5 6.4 6.3 6.3
6.8 7.1 6.0 6.5 5.6 6.4 6.5 6.5 6.6 7.1 7.1 7.8 7.7 8.1 8.2 7.2 7.2 7.4 7.0 6.8 7.3 7.6 7.4 7.2 7.0 6.9 6.9 6.6 6.6 6.6 6.5 6.5 6.4 6.6 6.9 6.9 6.8 6.9 6.7 6.4 6.3 6.1 6.2 6.1
6.4 6.2 6.6 6.3 6.3 6.6 6.8 6.7 6.9 7.1 7.1 6.8 7.3 7.3 7.3 7.4 6.8 6.9 6.8 7.0 6.8 7.5 7.3 7.1 7.2 7.0 6.9 6.7 6.6 6.5 6.5 6.4 6.2 6.5 6.7 6.7 6.6 6.5 6.2 6.1 6.1 6.1 6.2 6.3
6.2 6.0 6.8 6.5 6.0 6.3 6.5 6.6 6.9 7.0 7.2 7.0 7.3 7.0 7.2 6.9 7.4 7.1 7.2 7.0 7.0 7.1 6.6 7.0 7.1 6.9 6.7 6.5 6.5 6.4 6.4 6.1 6.1 6.4 6.7 6.8 6.7 6.7 6.5 6.3 6.2 6.3 6.4 6.4
6.3 6.6 6.8 6.7 7.0 7.2 6.8 7.1 7.2 7.4 7.0 6.9 6.8 7.6 7.7 6.8 7.3 7.3 7.1 7.1 6.8 6.7 6.6 6.8 6.6 6.3 6.5 6.2 6.5 6.5 6.3 6.2 6.2 6.7 6.9 6.9 7.0 6.9 6.8 6.4 6.3 6.4 6.5 6.9
6.1 6.4 6.7 7.5 8.3 7.6 7.7 7.4 7.6 7.7 7.2 7.4 7.0 7.4 7.5 8.3 7.3 7.2 7.2 7.1 7.2 7.1 7.1 7.1 6.5 6.2 5.8 5.8 6.7 6.6 6.3 6.3 6.6 6.8 6.9 6.9 6.9 6.6 6.5 6.4 6.3 6.5 6.9 7.1
5.8 6.4 6.5 6.9 7.5 7.7 7.7 7.6 7.6 7.7 7.8 7.7 7.4 7.2 7.5 8.1 8.3 8.3 7.0 7.4 7.5 7.0 7.1 6.7 6.3 6.2 6.1 6.5 6.9 6.6 6.5 6.6 6.9 6.8 6.8 6.8 6.6 6.5 6.4 6.4 6.5 6.9 6.9 7.1
6.1 6.2 6.2 6.7 7.4 7.3 6.7 6.5 7.7 7.7 7.7 7.6 7.4 7.3 7.7 8.0 8.1 8.3 7.5 7.3 7.2 7.1 6.9 6.9 6.6 6.2 7.0 7.1 6.7 6.4 6.4 6.7 6.9 7.0 6.9 6.9 6.6 6.5 6.4 6.7 6.7 6.9 7.1 7.1
6.1 6.3 6.2 6.3 6.6 6.1 6.4 7.1 7.5 7.5 7.4 7.6 7.6 7.4 7.5 7.9 8.0 8.1 8.3 7.4 7.3 7.1 7.0 6.8 6.5 6.8 7.3 6.9 6.5 6.6 6.7 6.8 7.1 7.1 6.9 6.7 6.6 6.5 6.7 6.6 6.8 7.0 7.1 7.4
6.3 6.2 6.2 6.3 5.7 6.8 6.8 7.3 7.7 7.5 7.5 7.6 7.7 7.4 7.6 7.7 8.1 7.4 7.9 7.4 7.3 7.1 6.6 6.3 7.0 7.3 6.8 6.4 6.5 6.6 6.6 6.9 7.0 6.9 6.8 6.6 6.7 6.9 6.9 7.0 7.1 7.3 7.4 7.3
6.2 6.5 6.3 6.0 6.5 6.6 6.6 7.6 7.6 7.0 6.9 7.4 7.6 7.5 7.6 7.6 7.6 7.5 7.4 7.1 6.7 6.8 6.6 6.8 6.8 6.1 5.8 5.9 6.6 6.6 6.7 6.9 6.8 6.5 6.5 6.6 6.9 7.1 7.1 7.0 7.2 7.3 7.5 7.5
6.2 6.4 6.6 6.4 6.6 7.3 7.4 7.8 7.5 6.9 7.5 7.5 7.3 7.4 7.3 7.3 7.4 7.0 6.7 6.7 6.8 6.8 6.7 6.3 6.1 5.7 6.3 6.3 6.3 6.6 6.6 6.4 6.3 6.3 6.3 6.6 6.8 6.9 6.8 7.1 7.4 7.5 7.4 7.7
6.6 6.1 6.0 6.3 6.5 6.5 7.2 7.3 6.8 7.4 7.3 7.3 7.4 7.2 7.1 6.8 6.8 7.1 6.8 6.8 6.7 6.3 6.3 6.3 6.2 6.2 6.3 6.4 6.3 6.3 6.4 6.2 6.1 6.2 6.4 6.6 6.8 6.9 7.1 7.3 7.4 7.5 7.5 7.8
6.4 6.7 6.6 6.4 6.8 7.3 7.2 7.0 6.9 7.1 7.1 6.9 6.7 6.7 6.5 6.4 6.4 6.7 6.8 6.5 6.3 6.2 6.4 6.7 6.6 6.5 6.4 6.3 6.4 6.3 6.3 6.5 6.6 6.7 6.8 6.7 6.7 6.8 7.0 7.2 7.4 7.3 7.4 7.5
6.6 6.5 6.6 6.8 6.8 7.1 7.1 7.1 7.0 7.1 6.5 6.5 6.6 6.7 6.7 6.8 6.8 6.7 6.6 6.4 6.4 6.6 6.6 6.5 6.3 6.2 6.3 6.1 6.0 6.2 6.2 6.8 6.9 6.8 6.7 6.6 6.7 6.9 6.9 7.2 7.3 7.1 7.2 7.3
6.7 6.7 7.0 6.7 6.5 6.3 6.8 6.8 6.6 6.5 6.8 6.6 6.3 6.5 6.5 6.6 6.3 6.1 6.2 6.3 6.3 6.2 6.1 6.1 6.1 6.1 6.3 6.5 6.7 6.7 6.6 6.6 6.9 7.0 6.7 6.6 6.5 6.8 7.0 7.0 6.9 7.0 7.2 7.2
6.7 6.1 5.9 6.5 6.2 6.3 6.5 6.5 6.6 6.4 6.0 6.2 6.4 6.4 6.3 6.2 6.0 6.1 6.0 5.9 6.0 6.1 6.1 6.1 6.3 6.3 6.6 6.6 6.7 6.8 6.9 7.0 7.0 7.1 7.0 6.8 6.6 6.7 7.0 6.9 6.9 7.0 7.0 7.0
Wind_Speed
16 10 14 19 16 17 14 14 16 16 11 5 15 19 15 9 9 11 7 4 3 3 5 9 10 10 12 12 13 11 11 10 9 7 6 5 5 6 6 7 9 11 7 7
10 19 17 15 8 13 13 15 16 16 15 6 16 19 15 11 10 6 8 7 4 4 8 8 9 8 9 10 10 11 10 9 7 7 5 5 7 4 6 7 5 10 7 6
18 8 20 14 13 13 14 16 16 16 6 13 18 19 24 11 7 8 7 4 5 4 7 8 8 8 7 8 8 9 9 9 6 9 7 7 7 6 3 1 3 6 6 3
16 15 11 14 17 12 16 13 13 15 11 11 2 12 5 15 13 13 10 9 7 9 9 8 9 9 8 7 7 9 9 9 4 9 12 13 8 7 3 4 4 5 5 4
12 13 14 17 16 14 11 4 8 12 14 15 18 9 16 18 17 15 12 11 9 7 9 10 10 10 9 8 9 10 10 11 10 11 11 8 5 5 6 6 8 6 7 8
19 6 13 15 11 11 3 7 8 9 10 14 17 16 12 15 15 15 14 12 10 10 10 11 11 12 10 9 10 12 13 13 12 10 8 7 8 7 6 7 7 6 6 6
18 19 12 11 13 12 13 11 6 8 10 12 12 13 16 7 6 18 16 13 11 11 12 12 13 13 13 11 12 12 14 12 10 9 9 8 8 6 7 8 8 8 7 7
17 14 24 17 20 13 21 19 9 12 12 14 10 8 11 1 12 14 16 14 14 13 11 12 13 13 14 15 14 13 12 11 10 8 7 7 7 6 5 7 4 6 4 5
17 17 14 16 22 21 18 21 18 18 8 6 10 9 8 7 12 15 17 16 15 14 14 13 13 13 14 14 13 12 11 11 10 8 7 7 7 6 6 4 5 4 4 4
18 14 11 19 15 22 25 13 14 11 11 18 13 19 15 18 17 18 19 18 17 16 15 14 13 13 13 13 12 10 8 8 9 8 8 8 8 7 6 6 7 7 7 7
20 16 9 19 16 19 17 17 14 14 14 9 15 14 11 20 20 21 20 19 18 17 16 14 14 13 12 12 12 11 10 10 9 8 8 7 7 7 7 8 7 6 5 5
27 11 14 19 18 19 21 19 21 10 19 19 15 17 6 4 16 18 20 20 18 17 17 15 14 14 14 13 12 12 10 10 10 9 9 9 8 8 7 5 5 4 6 7
23 7 10 10 9 11 19 21 21 21 11 19 12 6 5 5 11 17 18 18 18 18 18 16 15 14 14 13 11 9 9 9 9 8 8 8 9 8 7 6 6 6 6 6
21 15 19 13 14 13 23 22 26 22 16 17 22 17 13 10 12 13 15 16 19 18 18 17 16 14 13 12 10 8 7 5 7 7 9 9 8 8 7 6 6 5 5 6
18 13 20 18 14 5 14 23 25 28 28 19 26 25 22 16 17 16 16 17 18 18 20 20 17 15 14 10 7 6 6 6 7 8 8 7 5 5 5 5 4 4 4 6
14 7 8 15 16 14 15 19 23 23 27 27 28 30 21 17 16 15 15 16 18 20 21 19 18 16 8 4 8 6 7 6 6 6 6 6 6 5 4 3 3 2 4 6
10 7 6 9 14 14 13 24 22 22 22 23 23 27 21 20 19 19 14 15 19 20 20 17 16 9 7 8 7 8 7 6 7 7 6 6 4 4 3 3 2 1 3 5
5 7 6 7 4 6 18 19 22 27 26 24 24 26 24 20 19 20 16 17 18 18 17 14 8 7 8 8 8 7 6 5 5 4 3 1 2 2 2 5 2 1 1 3
21 17 4 5 6 12 17 18 17 15 22 23 25 26 25 22 19 21 13 13 15 14 9 7 8 9 9 8 9 9 6 5 5 4 4 3 3 4 3 3 2 2 2 2
15 12 8 4 6 13 19 21 14 8 17 15 17 20 19 16 14 14 12 1 6 6 11 11 9 10 10 9 9 9 6 6 6 5 4 3 3 3 3 3 3 1 2 1
5 4 10 7 7 9 9 8 10 12 6 4 7 11 13 12 11 6 9 9 11 12 13 14 13 12 11 10 10 8 7 5 5 4 6 5 4 4 4 4 2 2 2 4
13 10 6 7 5 7 13 12 13 3 5 2 2 4 6 7 9 6 8 9 10 13 14 15 13 12 11 10 10 8 6 6 6 7 7 6 5 3 3 5 3 4 4 4
10 12 10 11 8 6 4 15 7 2 4 2 3 2 2 6 6 5 7 9 4 12 12 11 9 10 9 10 9 9 9 9 7 7 6 5 5 4 4 4 4 4 4 4
9 16 9 9 11 6 10 3 6 4 5 5 7 7 5 6 6 4 5 8 9 8 9 9 10 10 10 10 9 5 12 11 9 7 7 6 5 5 5 4 4 4 4 3
5 12 10 11 4 7 9 8 9 8 7 7 5 5 8 8 7 9 8 8 8 8 7 7 8 9 9 9 8 7 10 10 8 6 6 6 6 6 5 2 1 2 5 3
6 8 11 8 11 9 12 10 8 9 8 6 7 7 5 4 6 5 6 8 9 7 6 7 8 8 8 8 8 8 10 10 8 7 6 6 6 5 5 6 5 11 10 7
Wind_Direction
202 214 216 226 225 260 297 277 276 282 272 283 266 265 262 252 239 233 229 226 193 193 104 60 44 26 58 69 111 125 110 118 119 121 122 119 125 149 149 150 164 130 143 151
182 230 228 235 262 238 244 258 264 270 269 296 266 267 260 236 224 219 214 196 188 141 93 75 66 73 69 83 92 105 114 124 129 135 135 130 136 147 136 159 132 96 150 176
207 228 213 230 218 228 238 255 265 270 248 228 258 272 247 212 181 194 201 174 141 112 107 98 90 89 94 98 110 119 115 120 130 138 126 119 129 135 147 174 127 148 179 161
232 243 205 203 226 220 252 248 255 267 255 263 88 268 152 150 185 196 183 171 142 130 115 111 112 104 98 98 113 125 130 133 160 175 155 167 174 165 137 165 158 162 157 159
207 221 203 216 222 227 258 296 248 253 252 262 257 244 271 171 186 193 183 164 146 131 119 118 116 117 118 136 141 145 148 156 169 177 165 175 163 170 160 172 151 169 175 187
229 193 209 230 234 229 235 221 233 246 252 250 250 254 249 207 205 169 170 168 154 144 126 121 127 126 124 130 135 139 151 160 169 171 185 168 172 150 156 159 175 180 181 184
214 230 216 228 196 201 196 200 215 229 221 242 260 230 233 106 173 162 172 166 157 151 143 145 143 132 132 138 142 150 161 161 160 157 163 168 162 175 164 166 194 171 179 183
210 212 206 196 213 195 201 203 217 224 246 261 198 227 243 309 151 156 168 164 161 158 157 151 140 143 143 147 158 163 160 152 162 169 177 178 180 185 201 199 175 204 197 174
206 225 199 200 213 222 195 224 235 267 261 271 256 195 181 162 159 167 170 174 174 169 169 160 155 153 151 154 156 165 167 161 168 180 194 192 192 211 203 178 196 199 194 175
238 232 193 180 202 226 237 203 219 229 238 237 244 248 261 172 177 184 188 186 182 179 177 169 170 168 165 161 159 168 183 185 177 192 203 205 203 204 204 202 206 204 209 204
220 223 191 196 203 198 203 220 219 222 227 236 251 257 330 164 192 195 198 197 190 186 184 181 184 182 179 178 171 183 189 202 210 201 215 209 215 201 205 213 213 214 215 220
202 207 191 206 199 227 206 208 210 213 218 232 260 263 117 194 190 195 199 197 196 194 194 190 195 189 190 190 190 190 203 213 221 217 212 213 207 205 206 218 214 203 212 213
186 219 180 198 182 212 225 214 219 220 241 243 222 234 90 177 183 195 205 199 204 199 200 199 197 195 197 199 203 208 208 224 231 222 216 211 212 204 197 191 201 207 232 233
186 198 199 194 201 201 210 220 215 215 225 238 243 251 210 196 207 210 209 209 206 205 206 210 203 202 206 202 209 217 222 219 230 217 216 207 207 200 187 189 199 210 238 252
198 225 207 209 229 233 197 217 223 222 226 225 246 247 249 225 210 221 217 220 216 216 213 215 210 212 209 198 217 228 176 193 203 207 208 186 182 195 186 193 203 219 247 260
214 198 214 225 244 243 245 223 221 230 236 239 248 254 259 266 271 264 221 221 219 215 216 222 215 221 208 198 225 174 167 182 187 186 186 171 186 188 194 204 225 258 268 272
187 206 172 235 229 245 251 233 235 237 233 235 241 254 265 261 256 254 221 239 229 222 224 217 220 189 198 194 175 167 163 167 176 170 166 174 188 216 199 214 233 326 287 314
199 229 210 248 130 214 245 234 228 241 249 250 253 256 261 269 276 280 250 234 233 235 229 220 173 168 173 174 140 127 144 143 143 150 129 92 195 180 136 67 85 46 59 50
205 206 164 171 198 264 279 248 229 236 248 243 246 255 261 260 266 264 259 253 254 222 199 142 168 161 166 152 146 138 114 115 112 101 109 119 114 123 104 143 136 112 96 99
207 232 205 146 211 226 245 240 251 215 253 250 258 263 270 268 262 257 279 103 97 94 132 141 134 158 157 153 138 135 131 135 142 157 144 119 86 96 123 134 130 143 90 116
184 168 196 189 229 243 245 132 132 192 250 12 302 267 255 266 274 45 83 130 134 142 150 151 163 175 159 156 150 142 148 156 143 106 133 109 91 105 137 142 134 109 131 137
178 176 196 199 230 234 239 162 212 304 59 22 293 280 259 250 80 105 135 141 157 157 157 170 172 166 160 158 149 148 159 144 148 148 147 136 132 119 135 116 117 129 155 127
190 195 190 198 212 207 269 223 233 360 270 180 200 108 225 191 148 158 150 150 170 174 176 183 174 165 168 173 169 165 170 165 159 151 146 140 140 140 144 143 151 164 188 172
221 205 215 198 217 219 218 159 164 185 164 142 134 117 123 109 107 91 106 156 176 191 191 184 185 186 186 194 195 191 144 161 160 162 164 152 159 159 163 173 195 202 193 177
189 164 204 216 215 166 210 182 161 149 143 138 121 132 138 150 175 180 176 181 189 204 219 217 212 217 205 192 189 171 147 148 163 159 160 163 173 178 163 144 348 152 59 51
177 183 203 211 197 204 190 159 151 160 163 147 144 138 138 184 182 204 210 201 201 206 221 225 234 224 219 199 182 165 148 166 167 170 178 183 173 167 181 167 137 60 79 70